When you browse on this site, cookies collect data to enhance your experience and personalize the content and advertising you see.
Visit our Privacy Policy to learn more. By continuing to use the site, you agree to this use of cookies and data.
  • In Czech Republic
  • List of Countries
  • For 7 days
  • Water Temperature
  • Satellite Maps
  • Weather Map
  • Weather Widgets
  • user-avatar
    Login

    Hourly Weather Liverpool

    Today, 19 June, Wednesday

    Time Temperature Precipitation Wind Pressure Humidity
    00:00 +14°C° 0 mm 2 mps 758 mmHg 84%
    01:00 +13°C° 0 mm 2 mps 758 mmHg 84%
    02:00 +12°C° 0 mm 2 mps 758 mmHg 85%
    03:00 +12°C° 0 mm 2 mps 758 mmHg 83%
    04:00 +12°C° 0 mm 2 mps 757 mmHg 82%
    05:00 +12°C° 0 mm 1 mps 757 mmHg 81%
    06:00 +14°C° 0 mm 1 mps 758 mmHg 74%
    07:00 +16°C° 0 mm 1 mps 758 mmHg 68%
    08:00 +18°C° 0 mm 2 mps 758 mmHg 61%
    09:00 +19°C° 0 mm 2 mps 758 mmHg 58%
    10:00 +21°C° 0 mm 2 mps 757 mmHg 54%
    11:00 +22°C° 0 mm 3 mps 757 mmHg 51%
    12:00 +22°C° 0 mm 3 mps 757 mmHg 52%
    13:00 +22°C° 0 mm 4 mps 757 mmHg 53%
    14:00 +22°C° 0 mm 5 mps 757 mmHg 54%
    15:00 +21°C° 0 mm 4 mps 757 mmHg 58%
    16:00 +20°C° 0 mm 4 mps 757 mmHg 61%
    17:00 +20°C° 0 mm 4 mps 756 mmHg 65%
    18:00 +18°C° 0 mm 3 mps 757 mmHg 73%
    19:00 +16°C° 0 mm 3 mps 757 mmHg 81%
    20:00 +14°C° 0 mm 2 mps 757 mmHg 89%
    21:00 +14°C° 0 mm 2 mps 757 mmHg 91%
    22:00 +13°C° 0 mm 2 mps 757 mmHg 93%
    23:00 +12°C° 0 mm 2 mps 756 mmHg 96%

    Tomorrow, 20 June, Thursday

    Time Temperature Precipitation Wind Pressure Humidity
    00:00 +12°C° 0 mm 2 mps 756 mmHg 96%
    01:00 +12°C° 0 mm 2 mps 756 mmHg 97%
    02:00 +12°C° 0 mm 2 mps 756 mmHg 97%
    03:00 +12°C° 0 mm 2 mps 755 mmHg 97%
    04:00 +13°C° 0 mm 2 mps 755 mmHg 97%
    05:00 +13°C° 0 mm 2 mps 755 mmHg 96%
    06:00 +14°C° 0 mm 2 mps 755 mmHg 95%
    07:00 +15°C° 0 mm 2 mps 755 mmHg 94%
    08:00 +15°C° 0 mm 2 mps 755 mmHg 92%
    09:00 +16°C° 0 mm 3 mps 754 mmHg 90%
    10:00 +17°C° 0 mm 3 mps 754 mmHg 88%
    11:00 +17°C° 0 mm 3 mps 753 mmHg 85%
    12:00 +17°C° 0 mm 3 mps 753 mmHg 86%
    13:00 +18°C° 0 mm 3 mps 753 mmHg 86%
    14:00 +18°C° 0 mm 3 mps 752 mmHg 86%
    15:00 +18°C° 0 mm 3 mps 752 mmHg 88%
    16:00 +17°C° 0 mm 3 mps 751 mmHg 90%
    17:00 +17°C° 0 mm 3 mps 751 mmHg 92%
    18:00 +17°C° 0 mm 3 mps 750 mmHg 94%
    19:00 +16°C° 0 mm 3 mps 750 mmHg 96%
    20:00 +16°C° 0 mm 3 mps 750 mmHg 98%
    21:00 +16°C° 0.1 mm 3 mps 749 mmHg 98%
    22:00 +15°C° 0.1 mm 4 mps 749 mmHg 98%
    23:00 +17°C° 0.1 mm 4 mps 748 mmHg 98%

    Day after tomorrow, 21 June, Friday

    Time Temperature Precipitation Wind Pressure Humidity
    00:00 +16°C° 0 mm 5 mps 748 mmHg 98%
    01:00 +16°C° 0 mm 5 mps 747 mmHg 98%
    02:00 +17°C° 0 mm 6 mps 746 mmHg 97%
    03:00 +16°C° 0.1 mm 5 mps 746 mmHg 98%
    04:00 +16°C° 0.1 mm 5 mps 745 mmHg 98%
    05:00 +17°C° 0.1 mm 4 mps 745 mmHg 98%
    06:00 +17°C° 0.1 mm 4 mps 745 mmHg 98%
    07:00 +17°C° 0.1 mm 4 mps 745 mmHg 98%
    08:00 +17°C° 0.1 mm 4 mps 744 mmHg 98%
    09:00 +18°C° 0.6 mm 4 mps 744 mmHg 98%
    10:00 +18°C° 0.6 mm 4 mps 744 mmHg 98%
    11:00 +18°C° 0.6 mm 4 mps 744 mmHg 98%
    12:00 +19°C° 0.4 mm 4 mps 744 mmHg 98%
    13:00 +19°C° 0.4 mm 4 mps 744 mmHg 97%
    14:00 +19°C° 0.4 mm 4 mps 744 mmHg 97%
    15:00 +19°C° 0.1 mm 5 mps 744 mmHg 94%
    16:00 +17°C° 0.1 mm 6 mps 744 mmHg 92%
    17:00 +17°C° 0.1 mm 6 mps 744 mmHg 89%
    18:00 +16°C° 0 mm 5 mps 745 mmHg 88%
    19:00 +16°C° 0 mm 5 mps 745 mmHg 87%
    20:00 +17°C° 0 mm 4 mps 746 mmHg 86%
    21:00 +15°C° 0 mm 4 mps 746 mmHg 90%
    22:00 +14°C° 0 mm 3 mps 746 mmHg 93%
    23:00 +13°C° 0 mm 3 mps 747 mmHg 97%

    22 June, Saturday

    Time Temperature Precipitation Wind Pressure Humidity
    00:00 +13°C° 0 mm 3 mps 747 mmHg 97%
    01:00 +12°C° 0 mm 3 mps 747 mmHg 97%
    02:00 +12°C° 0 mm 3 mps 747 mmHg 97%
    03:00 +12°C° 0 mm 3 mps 747 mmHg 95%
    04:00 +12°C° 0 mm 4 mps 747 mmHg 93%
    05:00 +12°C° 0 mm 4 mps 747 mmHg 91%
    06:00 +12°C° 0 mm 5 mps 749 mmHg 90%
    07:00 +13°C° 0 mm 5 mps 749 mmHg 85%
    08:00 +14°C° 0 mm 6 mps 749 mmHg 80%
    09:00 +14°C° 0 mm 5 mps 749 mmHg 76%
    10:00 +15°C° 0 mm 5 mps 750 mmHg 73%
    11:00 +16°C° 0 mm 5 mps 750 mmHg 69%
    12:00 +16°C° 0 mm 5 mps 750 mmHg 67%
    13:00 +17°C° 0 mm 5 mps 750 mmHg 65%
    14:00 +17°C° 0 mm 5 mps 750 mmHg 64%
    15:00 +19°C° 0 mm 5 mps 750 mmHg 61%
    16:00 +19°C° 0 mm 4 mps 750 mmHg 59%
    17:00 +20°C° 0 mm 4 mps 750 mmHg 57%
    18:00 +18°C° 0.1 mm 4 mps 750 mmHg 66%
    19:00 +17°C° 0.1 mm 3 mps 750 mmHg 74%
    20:00 +16°C° 0.1 mm 3 mps 751 mmHg 83%
    21:00 +14°C° 0.2 mm 3 mps 751 mmHg 87%
    22:00 +13°C° 0.2 mm 3 mps 751 mmHg 92%
    23:00 +12°C° 0.2 mm 3 mps 751 mmHg 96%

    23 June, Sunday

    Time Temperature Precipitation Wind Pressure Humidity
    00:00 +12°C° 0 mm 3 mps 751 mmHg 94%
    01:00 +12°C° 0 mm 4 mps 750 mmHg 92%
    02:00 +12°C° 0 mm 4 mps 750 mmHg 90%
    03:00 +12°C° 0 mm 4 mps 750 mmHg 89%
    04:00 +12°C° 0 mm 5 mps 750 mmHg 88%
    05:00 +10°C° 0 mm 5 mps 750 mmHg 88%
    06:00 +13°C° 0 mm 5 mps 750 mmHg 78%
    07:00 +15°C° 0 mm 6 mps 750 mmHg 69%
    08:00 +17°C° 0 mm 6 mps 750 mmHg 59%
    09:00 +19°C° 0 mm 6 mps 751 mmHg 55%
    10:00 +21°C° 0 mm 7 mps 751 mmHg 50%
    11:00 +22°C° 0 mm 7 mps 751 mmHg 45%
    12:00 +23°C° 0 mm 7 mps 751 mmHg 44%
    13:00 +24°C° 0 mm 6 mps 751 mmHg 42%
    14:00 +24°C° 0 mm 6 mps 751 mmHg 41%
    15:00 +24°C° 0 mm 6 mps 751 mmHg 42%
    16:00 +26°C° 0 mm 5 mps 751 mmHg 43%
    17:00 +26°C° 0 mm 5 mps 751 mmHg 44%
    18:00 +23°C° 0 mm 4 mps 751 mmHg 53%
    19:00 +21°C° 0 mm 4 mps 752 mmHg 62%
    20:00 +19°C° 0 mm 4 mps 752 mmHg 71%
    21:00 +18°C° 0 mm 4 mps 752 mmHg 72%
    22:00 +17°C° 0 mm 4 mps 752 mmHg 74%
    23:00 +15°C° 0 mm 4 mps 752 mmHg 75%

    24 June, Monday

    Time Temperature Precipitation Wind Pressure Humidity
    00:00 +15°C° 0 mm 4 mps 752 mmHg 74%
    01:00 +15°C° 0 mm 4 mps 752 mmHg 73%
    02:00 +15°C° 0 mm 4 mps 752 mmHg 72%
    03:00 +15°C° 0 mm 4 mps 752 mmHg 75%
    04:00 +15°C° 0 mm 4 mps 753 mmHg 78%
    05:00 +14°C° 0 mm 4 mps 753 mmHg 82%
    06:00 +18°C° 0 mm 3 mps 753 mmHg 76%
    07:00 +20°C° 0 mm 3 mps 753 mmHg 71%
    08:00 +22°C° 0 mm 3 mps 754 mmHg 66%
    09:00 +24°C° 0 mm 3 mps 754 mmHg 60%
    10:00 +26°C° 0 mm 3 mps 754 mmHg 53%
    11:00 +28°C° 0 mm 3 mps 755 mmHg 47%
    12:00 +28°C° 0 mm 4 mps 755 mmHg 46%
    13:00 +29°C° 0 mm 4 mps 755 mmHg 44%
    14:00 +29°C° 0 mm 5 mps 755 mmHg 43%
    15:00 +29°C° 0 mm 5 mps 755 mmHg 45%
    16:00 +28°C° 0 mm 4 mps 755 mmHg 47%
    17:00 +28°C° 0 mm 4 mps 755 mmHg 50%
    18:00 +25°C° 0 mm 4 mps 755 mmHg 58%
    19:00 +22°C° 0 mm 3 mps 755 mmHg 67%
    20:00 +19°C° 0 mm 3 mps 755 mmHg 76%
    21:00 +19°C° 0 mm 3 mps 755 mmHg 77%
    22:00 +18°C° 0 mm 3 mps 755 mmHg 77%
    23:00 +17°C° 0 mm 3 mps 755 mmHg 78%
    Show more